User: anonymous   Login
Location: Bakov nad Jizerou
(50.4784°N, 14.9394°E)
Time: 07:15:40
(UTC+00:00)
Language:

RESURS O1 DEB - Orbit

View from above orbital plane
View from above orbital plane
View from above satellite
View from above satellite

Ground track
Ground track

The orbit data is extracted from the following two-line orbital elements,

1 48515U 94074ES  23098.90031707  .25555384  26326-5  14218-1 0  9994
2 48515  97.7316 158.4658 0015403 270.9256  89.0267 16.19112572110334
Epoch (UTC): 08 April 2023 21:36:27
Eccentricity: 0.0015403
inclination: 97.7316°
perigee height: 212 km
apogee height: 232 km
right ascension of ascending node: 158.4658°
argument of perigee: 270.9256°
revolutions per day: 16.19112572
mean anomaly at epoch: 89.0267°
orbit number at epoch: 11033

The dashed part of the orbit path shows where the satellite is in the earth's shadow,  

DLR